Aurora, IL

10:55 PM CDT on July 23, 2017 (GMT -0500)
Aurora Municipal

Weather History for KARR - November, 2013

Change the Weather History Date:

Friday, November 29, 2013

  Actual Average Record
Temperature  
Mean Temperature 22 °F 31 °F  
Max Temperature 35 °F 40 °F 66 °F (1998)
Min Temperature 9 °F 23 °F 9 °F (2013)
Degree Days  
Heating Degree Days 43 34  
Month to date heating degree days 849 773  
Since 1 July heating degree days 1422 1380  
Cooling Degree Days 0 0  
Month to date cooling degree days 0 0  
Year to date cooling degree days 745 655  
Moisture  
Dew Point 15 °F    
Average Humidity 68    
Maximum Humidity 92    
Minimum Humidity 44    
Precipitation  
Precipitation 0.00 in 0.09 in 1.33 in (2006)
Month to date precipitation 2.30 3.04  
Year to date precipitation 32.83 34.80  
Sea Level Pressure  
Sea Level Pressure 30.56 in    
Wind  
Wind Speed 5 mph (SSE)    
Max Wind Speed 13 mph    
Max Gust Speed 15 mph    
Visibility 9 miles    
Events      
T = Trace of Precipitation, MM = Missing Value Source: NWS Daily Summary

Daily Weather History Graph

Daily Weather History Graph

Search for Another Location

Airport or City:

Trip Planner

Search our weather history database for the weather conditions in past years. The results will help you decide how hot, cold, wet, or windy it might be!

Date:

Astronomy

Nov. 29, 2013 Rise Set
Actual Time 6:59 AM CST 4:24 PM CST
Civil Twilight 6:28 AM CST 4:55 PM CST
Nautical Twilight 5:54 AM CST 5:30 PM CST
Astronomical Twilight 5:20 AM CST 6:03 PM CST
Moon 3:02 AM CST (11/29) 2:11 PM CST (11/29)
Length of Visible Light 10h 26m
Length of Day
9h 24m
Waning Crescent, 14% of the Moon is Illuminated
Nov 29
Waning Crescent
Dec 2
New
Dec 9
First Quarter
Dec 17
Full
Dec 25
Last Quarter

Hourly Weather History & Observations

Time (CST) Temp. Windchill Dew Point Humidity Pressure Visibility Wind Dir Wind Speed Gust Speed Precip Events Conditions
12:52 AM 12.9 °F - 9.0 °F 84% 30.54 in 10.0 mi Calm Calm - N/A   Clear
1:52 AM 10.9 °F - 8.1 °F 88% 30.56 in 9.0 mi Calm Calm - N/A   Clear
2:52 AM 12.9 °F - 9.0 °F 84% 30.57 in 9.0 mi Calm Calm - N/A   Clear
3:52 AM 10.0 °F 0.4 °F 6.1 °F 84% 30.59 in 9.0 mi West 5.8 mph - N/A   Clear
4:52 AM 9.0 °F - 5.0 °F 84% 30.62 in 9.0 mi Calm Calm - N/A   Clear
5:52 AM 10.9 °F - 6.1 °F 81% 30.63 in 9.0 mi Calm Calm - N/A   Clear
6:52 AM 9.0 °F - 6.1 °F 88% 30.65 in 9.0 mi Calm Calm - N/A   Clear
7:52 AM 14.0 °F - 10.0 °F 84% 30.66 in 8.0 mi Calm Calm - N/A   Clear
8:52 AM 23.0 °F - 18.0 °F 81% 30.66 in 8.0 mi Calm Calm - N/A   Clear
9:52 AM 28.0 °F 24.2 °F 16.0 °F 61% 30.66 in 10.0 mi ESE 3.5 mph - N/A   Clear
10:52 AM 30.9 °F 24.3 °F 16.0 °F 54% 30.64 in 10.0 mi South 6.9 mph - N/A   Clear
11:52 AM 33.1 °F 25.5 °F 17.1 °F 52% 30.62 in 10.0 mi South 9.2 mph - N/A   Clear
12:52 PM 34.0 °F 27.2 °F 17.1 °F 50% 30.59 in 10.0 mi South 8.1 mph - N/A   Clear
1:52 PM 34.0 °F 28.0 °F 18.0 °F 52% 30.57 in 10.0 mi South 6.9 mph - N/A   Clear
2:52 PM 35.1 °F 28.6 °F 16.0 °F 46% 30.56 in 10.0 mi South 8.1 mph - N/A   Clear
3:52 PM 33.1 °F 25.5 °F 16.0 °F 50% 30.55 in 10.0 mi SSE 9.2 mph - N/A   Clear
4:52 PM 28.9 °F 23.9 °F 17.1 °F 61% 30.54 in 10.0 mi SE 4.6 mph - N/A   Clear
5:52 PM 30.0 °F 23.2 °F 18.0 °F 61% 30.52 in 9.0 mi ESE 6.9 mph - N/A   Clear
6:52 PM 28.0 °F 20.8 °F 19.0 °F 69% 30.51 in 9.0 mi SE 6.9 mph - N/A   Clear
7:52 PM 28.0 °F 20.0 °F 19.9 °F 72% 30.49 in 9.0 mi SE 8.1 mph - N/A   Clear
8:52 PM 30.0 °F 22.4 °F 21.0 °F 69% 30.47 in 10.0 mi SSE 8.1 mph - N/A   Clear
9:52 PM 30.0 °F 23.2 °F 21.0 °F 69% 30.45 in 10.0 mi SE 6.9 mph - N/A   Clear
10:52 PM 30.9 °F 22.8 °F 21.0 °F 67% 30.44 in 9.0 mi SSE 9.2 mph - N/A   Clear
11:52 PM 28.9 °F 21.1 °F 21.0 °F 72% 30.42 in 9.0 mi SSE 8.1 mph - N/A   Clear